Date,TemperatureHighF,TemperatureAvgF,TemperatureLowF,DewpointHighF,DewpointAvgF,DewpointLowF,HumidityHigh,HumidityAvg,HumidityLow,PressureMaxIn,PressureMinIn,WindSpeedMaxMPH,WindSpeedAvgMPH,GustSpeedMaxMPH,PrecipitationSumIn
2013-2-1,62,50,38,-100,-100,-100,0,0,100,0.00,40.00,0,-999,0,0.00
2013-2-2,69,57,43,-100,-100,-100,0,0,100,0.00,40.00,0,-999,0,0.00
2013-2-3,69,53,40,-100,-100,-100,0,0,100,0.00,40.00,0,-999,0,0.00
2013-2-4,67,58,54,-100,-100,-100,0,0,100,0.00,40.00,0,-999,0,0.00
2013-2-5,73,64,56,-100,-100,-100,0,0,100,0.00,40.00,0,-999,0,0.00
2013-2-6,67,62,57,-100,-100,-100,0,0,100,0.00,40.00,0,-999,0,0.00
2013-2-7,70,61,55,-100,-100,-100,0,0,100,0.00,40.00,0,-999,0,0.00
2013-2-8,63,52,44,-100,-100,-100,0,0,100,0.00,40.00,0,-999,0,0.00
2013-2-9,62,51,45,-100,-100,-100,0,0,100,0.00,40.00,0,-999,0,0.00
2013-2-10,66,59,54,-100,-100,-100,0,0,100,0.00,40.00,0,-999,0,0.00
2013-2-11,57,51,47,-100,-100,-100,0,0,100,0.00,40.00,0,-999,0,0.00
2013-2-12,57,49,45,-100,-100,-100,0,0,100,0.00,40.00,0,-999,0,0.00
2013-2-13,52,44,38,-100,-100,-100,0,0,100,0.00,40.00,0,-999,0,0.00
2013-2-14,66,49,35,-100,-100,-100,0,0,100,0.00,40.00,0,-999,0,0.00
2013-2-15,52,45,40,-100,-100,-100,0,0,100,0.00,40.00,0,-999,0,0.00
2013-2-16,56,45,32,-100,-100,-100,0,0,100,0.00,40.00,0,-999,0,0.00
2013-2-17,67,51,37,-100,-100,-100,0,0,100,0.00,40.00,0,-999,0,0.00
2013-2-18,76,62,54,-100,-100,-100,0,0,100,0.00,40.00,0,-999,0,0.00
2013-2-19,62,52,40,-100,-100,-100,0,0,100,0.00,40.00,0,-999,0,0.00
2013-2-20,51,49,47,-100,-100,-100,0,0,100,0.00,40.00,0,-999,0,0.00
2013-2-21,69,57,51,-100,-100,-100,0,0,100,0.00,40.00,0,-999,0,0.00
2013-2-22,51,44,38,-100,-100,-100,0,0,100,0.00,40.00,0,-999,0,0.00
2013-2-23,58,45,32,-100,-100,-100,0,0,100,0.00,40.00,0,-999,0,0.00
2013-2-24,69,52,35,-100,-100,-100,0,0,100,0.00,40.00,0,-999,0,0.00
2013-2-25,60,52,41,-100,-100,-100,0,0,100,0.00,40.00,0,-999,0,0.00
2013-2-26,57,45,37,-100,-100,-100,0,0,100,0.00,40.00,0,-999,0,0.00
2013-2-27,58,47,37,-100,-100,-100,0,0,100,0.00,40.00,0,-999,0,0.00
2013-2-28,56,42,32,-100,-100,-100,0,0,100,0.00,40.00,0,-999,0,0.00